Regional Weather Roundup
Issued by NWS

Home | Current Version | Previous Version | Text Only | Print | Product List | Glossary Off
Versions: 1 2 3 4 5 6 7 8 9 10 11 12 13 14 15 16 17 18 19 20 21 22 23 24 25 26 27 28 29 30 31 32 33 34 35 36 37 38 39 40 41 42 43 44 45 46 47 48 49 50

000
ASUS43 KLMK 110402
RWRKY
KENTUCKY REGIONAL WEATHER ROUNDUP
NATIONAL WEATHER SERVICE LOUISVILLE KY
1100 PM EST WED FEB 10 2016

NOTE "FAIR" INDICATES FEW OR NO CLOUDS BELOW 12,000 FEET
WITH NO SIGNIFICANT WEATHER AND/OR OBSTRUCTIONS TO VISIBILITY.

KYZ001>023-026-027-061>063-070>075-110500-
WESTERN AND SOUTH CENTRAL KENTUCKY

CITY           SKY/WX    TMP DP  RH WIND       PRES   REMARKS
PADUCAH        CLOUDY    25  20  81 SE5       30.17F WCI  19
HENDERSON      CLOUDY    21  18  86 SW5       30.20S WCI  15
OWENSBORO      CLOUDY    22  18  85 W5        30.21R WCI  16
HOPKINSVILLE   CLOUDY    24  20  85 SW3       30.19S
BOWLING GREEN  CLOUDY    24  18  77 W7        30.21S WCI  16
GLASGOW        NOT AVBL
$$

KYZ024-025-028>034-038-045-046-053-110500-
NORTH CENTRAL KENTUCKY

CITY           SKY/WX    TMP DP  RH WIND       PRES   REMARKS
LOUISVILLE/SDF CLOUDY    22   9  57 W10       30.18R WCI  11
LOUISVILLE/LOU MOCLDY    22  10  60 W10       30.18R WCI  11
FORT KNOX      FLURRIES  21  16  79 W6        30.16R WCI  14
$$

KYZ035>037-039>044-047>052-055>060-089>105-110500-
NORTHEAST KENTUCKY

CITY           SKY/WX    TMP DP  RH WIND       PRES   REMARKS
LEXINGTON      CLOUDY    18   9  68 W6        30.14R WCI  10
COVINGTON      MOCLDY    12   4  70 CALM      30.13R
FRANKFORT      PTCLDY    19   8  62 W3        30.14R
$$

KYZ054-064>069-076>088-106>120-110500-
SOUTHEAST KENTUCKY

CITY           SKY/WX    TMP DP  RH WIND       PRES   REMARKS
JACKSON        PTCLDY    15   6  67 SW3       30.11R
LONDON         CLOUDY    20   9  62 W6        30.14R WCI  12
SOMERSET       NOT AVBL
MIDDLESBORO    PTCLDY    23  10  56 CALM      30.15R
MONTICELLO     MOCLDY    23  15  71 W16       30.18R WCI  10
$$




USA.gov is the U.S. government's official web portal to all federal, state and local government web resources and services.